Regional Weather Roundup
Issued by NWS

Home | Current Version | Previous Version | Text Only | Print | Product List | Glossary Off
Versions: 1 2 3 4 5 6 7 8 9 10 11 12 13 14 15 16 17 18 19 20 21 22 23 24 25 26 27 28 29 30 31 32 33 34 35 36 37 38 39 40 41 42 43 44 45 46 47 48 49 50

000
ASUS45 KBOU 260710
RWRCO

WEATHER ROUNDUP FOR COLORADO
NATIONAL WEATHER SERVICE DENVER/BOULDER CO
100 AM MDT MON SEP 26 2016

NOTE: "FAIR" INDICATES FEW OR NO CLOUDS BELOW 12000 FEET WITH NO
SIGNIFICANT WEATHER AND/OR OBSTRUCTIONS TO VISIBILITY.

COZ001>005-013-030-031-260800-
...NORTHWEST COLORADO...

CITY           SKY/WX    TMP DP  RH WIND       PRES   REMARKS
CRAIG          FAIR      37  33  85 CALM      30.51S
HAYDEN         FAIR      39  28  65 E7        30.51F
MEEKER         FAIR      39  35  86 E3        30.51S
MOUNT WERNER   NOT AVBL
STEAMBOAT SPGS FAIR      37  33  87 CALM      30.53S
WALDEN           N/A     28  23  80 SE8       30.58S WCI  20
$$

COZ006>008-011-260800-
...WEST CENTRAL VALLEYS...

CITY           SKY/WX    TMP DP  RH WIND       PRES   REMARKS
GRAND JUNCTION FAIR      51  37  58 CALM      30.39F
MONTROSE       FAIR      47  37  68 SE9       30.47S
EAGLE          FAIR      41  30  65 SE5       30.54S
RIFLE          FAIR      47  41  80 SW5       30.47R
DELTA          FAIR      51  38  63 E6        30.44R
NUCLA          FAIR      46  34  61 E8        30.48S
$$

COZ017>023-064>068-260800-
...SOUTHWEST COLORADO...

CITY           SKY/WX    TMP DP  RH WIND       PRES   REMARKS
DURANGO        FAIR      44  36  73 N5        30.44R
CORTEZ         FAIR      42  35  76 E3        30.41S
PAGOSA SPRINGS FAIR      42  34  72 CALM      30.50R
TELLURIDE      FAIR      42  36  81 SE7       30.58F
WOLF CREEK PAS FAIR      37  27  65 MISG      30.73S
$$

COZ009-010-012-014-032>034-037-058>063-260800-
...CENTRAL COLORADO...

CITY           SKY/WX    TMP DP  RH WIND       PRES   REMARKS
ASPEN          FAIR      38  31  76 S6        30.55R
BUENA VISTA    FAIR      33  25  72 W6        30.57S WCI  28
COPPER MTN     FAIR      37  21  52 W3        30.72S
BERTHOUD PASS  FAIR      28  14  54 N10G16    30.71S WCI  19
COTTONWOOD PAS FAIR      43  28  56 CALM      30.63S
GUNNISON       FAIR      37  30  75 CALM      30.54S
KREMMLING      FAIR      34  25  69 CALM      30.57S
LEADVILLE      FAIR      29  21  72 N5        30.62S WCI  24
MONARCH PASS   FAIR      37  27  65 CALM      30.81S
SALIDA         FAIR      43  30  60 W3        30.62S
SUNLIGHT       FAIR      36  32  87 E5        30.69S
WILKERSON PASS FAIR      34  27  75 CALM      30.71S
$$

COZ069>075-260800-
...SAN LUIS VALLEY/SANGRE DE CRISTO MOUNTAINS...

CITY           SKY/WX    TMP DP  RH WIND       PRES   REMARKS
ALAMOSA        FAIR      43  31  62 E8        30.49R
LA VETA PASS   FAIR      34  27  75 MISG      30.62F
SAGUACHE       NOT AVBL
$$

COZ035-036-038>040-260800-
...NORTHERN COLORADO FRONT RANGE...

CITY           SKY/WX    TMP DP  RH WIND       PRES   REMARKS
DENVER INTL AP FAIR      50  29  44 SW8       30.44F
DMNS CITY PARK NOT AVBL
AURORA         CLEAR     46  30  52 W2        30.46S
FRONT RANGE AP NOT AVBL
ERIE MUNI ARPT FAIR      43  33  67 S3        30.44S
BOULDER MUN AP FAIR      50  34  53 CALM      30.44F
CENTENNIAL     FAIR      50  28  42 SE8       30.46F
BROOMFIELD     FAIR      48  32  53 W6        30.46F
FORT COLLINS   FAIR      48  36  61 N7        30.45F
LONGMONT       FAIR      47  37  68 CALM        N/A
$$

COZ041-046-047-076>085-087-088-260800-
...PIKES PEAK/PALMER DIVIDE AND SOUTHERN FOOTHILLS...

CITY           SKY/WX    TMP DP  RH WIND       PRES   REMARKS
COLO. SPRINGS  FAIR      49  28  44 E9        30.51S
A. F. ACADEMY  FAIR      38  29  70 N7        30.51R
SCHRIEVER AFB  NOT AVBL
ELLICOTT       NOT AVBL
FALCON         FAIR      42  26  55 CALM      30.54S
FORT CARSON    FAIR      47  29  48 CALM      30.49R
LIMON          FAIR      34  24  67 N5        30.48S WCI  30
MONUMENT HILL  FAIR      37  27  65 S8        30.53S
TRINIDAD       FAIR      45  32  60 W12       30.48S
$$

COZ042>045-048>051-090-091-260800-
...NORTHEAST COLORADO...

CITY           SKY/WX    TMP DP  RH WIND       PRES   REMARKS
GREELEY ARPT   FAIR      43  36  75 CALM      30.45S
AKRON          FAIR      46  31  55 S6        30.42F
BURLINGTON     FAIR      44  35  70 W6        30.43R
WRAY           NOT AVBL
STERLING       FAIR      37  32  81 W3        30.40S
HOLYOKE        FAIR      43  36  75 W6        30.39F
FORT MORGAN    FAIR      45  30  56 W5        30.44R
$$

COZ086-089-092>099-260800-
...SOUTHEAST COLORADO...

CITY           SKY/WX    TMP DP  RH WIND       PRES   REMARKS
PUEBLO         FAIR      52  29  41 E10       30.45S
LA JUNTA       FAIR      48  32  53 NE7       30.44S
LAMAR          FAIR      40  29  64 CALM      30.41S
SPRINGFIELD    NOT AVBL
$$



USA.gov is the U.S. government's official web portal to all federal, state and local government web resources and services.